FW5316 Weather Reports


Display with metric or nautical units.
time (UTC)temp
F
wind
direction
speed
MPH
gust
MPH
rain 1hr
in
rain 24hr
in
rain mn
in
humidity
%
barometer
mb
20260831092015 73 0.0 0.0 0.00 0.00 0.00 80 1013.1
20260831091015 73 0.0 0.0 0.00 0.00 0.00 80 1013.1
20260831090016 73 296 0.0 4.0 0.00 0.00 0.00 81 1013.1
20260831085015 73 280 0.0 6.0 0.00 0.00 0.00 81 1013.2
20260831084015 73 0.0 0.0 0.00 0.00 0.00 81 1013.4
20260831083015 73 252 0.0 3.0 0.00 0.00 0.00 81 1013.3
20260831082015 73 256 1.0 4.0 0.00 0.00 0.00 81 1013.3
20260831081015 73 235 1.0 4.0 0.00 0.00 0.00 81 1013.3
20260831080015 73 241 1.0 3.0 0.00 0.00 0.00 81 1013.3
20260831075015 73 0.0 3.0 0.00 0.00 0.00 82 1013.4
20260831074015 73 0.0 0.0 0.00 0.00 0.00 82 1013.4
20260831073035 73 0.0 0.0 0.00 0.00 0.00 82 1013.4
20260831072015 73 0.0 3.0 0.00 0.00 0.00 82 1013.4
20260831071015 73 225 0.0 5.0 0.00 0.00 0.00 82 1013.4
20260831070015 73 0.0 0.0 0.00 0.00 0.00 83 1013.5
20260831065016 73 0.0 0.0 0.00 0.00 0.00 83 1013.5
20260831064017 73 222 1.0 5.0 0.00 0.00 0.00 83 1013.5
20260831063015 73 248 1.0 3.0 0.00 0.00 0.00 83 1013.4
20260831062015 72 0.0 0.0 0.00 0.00 0.00 84 1013.3
20260831061016 72 0.0 0.0 0.00 0.00 0.00 83 1013.3
20260831060016 72 0.0 0.0 0.00 0.00 0.00 83 1013.4
20260831055036 72 0.0 0.0 0.00 0.00 0.00 83 1013.4
20260831054015 73 0.0 0.0 0.00 0.00 0.00 83 1013.3
20260831053015 73 0.0 0.0 0.00 0.00 0.00 83 1013.3
20260831052036 73 0.0 0.0 0.00 0.00 0.00 83 1013.3
20260831051015 73 0.0 0.0 0.00 0.00 0.00 82 1013.2
20260831050016 73 259 1.0 3.0 0.00 0.00 0.00 82 1013.2
20260831045035 73 258 0.0 3.0 0.00 0.00 0.00 82 1013.2
20260831044015 73 257 0.0 3.0 0.00 0.00 0.00 82 1013.2
20260831043036 73 252 0.0 3.0 0.00 0.00 0.00 82 1013.2
20260831042015 73 248 1.0 4.0 0.00 0.00 0.00 82 1013.1
20260831041015 73 0.0 2.0 0.00 0.00 0.00 82 1013.1
20260831040015 73 216 1.0 4.0 0.00 0.00 0.00 82 1012.9
20260831035017 74 223 1.0 6.0 0.00 0.00 0.00 82 1012.8
20260831034015 74 210 2.0 5.0 0.00 0.00 0.00 82 1012.7
20260831033016 74 214 2.0 5.0 0.00 0.00 0.00 82 1012.4
20260831032015 74 228 0.0 6.0 0.00 0.00 0.00 81 1012.3
20260831031015 74 200 2.0 5.0 0.00 0.00 0.00 81 1012.2
20260831030015 74 206 3.0 6.0 0.00 0.00 0.00 80 1012.0
20260831025015 74 218 2.0 5.0 0.00 0.00 0.00 80 1012.1
20260831024015 74 201 2.0 8.0 0.00 0.00 0.00 79 1012.1
20260831023015 75 183 3.0 7.0 0.00 0.00 0.00 79 1012.1
20260831022035 75 199 3.0 6.0 0.00 0.00 0.00 78 1012.0
20260831021015 75 187 4.0 7.0 0.00 0.00 0.00 78 1012.0
20260831020015 75 185 4.0 7.0 0.00 0.00 0.00 77 1012.0
20260831015015 76 196 5.0 7.0 0.00 0.00 0.00 76 1012.0
20260831014015 76 196 4.0 8.0 0.00 0.00 0.00 75 1011.9
20260831013015 77 209 3.0 7.0 0.00 0.00 0.00 75 1012.0
20260831012035 77 194 4.0 7.0 0.00 0.00 0.00 75 1012.0
20260831011035 77 200 5.0 10.0 0.00 0.00 0.00 74 1012.0
20260831010015 77 213 4.0 10.0 0.00 0.00 0.00 74 1012.0
20260831005015 78 203 5.0 11.0 0.00 0.00 0.00 74 1012.0
20260831004015 78 183 6.0 11.0 0.00 0.00 0.00 74 1012.0
20260831003015 78 197 6.0 14.0 0.00 0.00 0.00 73 1012.0
20260831002015 79 206 7.0 14.0 0.00 0.00 0.00 72 1012.1
20260831001015 79 220 6.0 13.0 0.00 0.00 0.00 72 1011.9
20260831000015 80 209 6.0 13.0 0.00 0.00 0.00 71 1011.8
20260830235015 80 208 6.0 13.0 0.00 0.00 0.00 71 1012.0
20260830234017 81 204 7.0 13.0 0.00 0.00 0.00 70 1012.0
20260830233017 81 202 5.0 15.0 0.00 0.00 0.00 70 1012.1
20260830232018 81 206 6.0 14.0 0.00 0.00 0.00 69 1012.1
20260830231117 82 211 6.0 12.0 0.00 0.00 0.00 68 1012.1
20260830230015 82 223 5.0 14.0 0.00 0.00 0.00 68 1012.1
20260830225017 82 194 6.0 12.0 0.00 0.00 0.00 68 1012.2
20260830224017 82 203 7.0 14.0 0.00 0.00 0.00 67 1012.2
20260830223017 83 206 6.0 11.0 0.00 0.00 0.00 65 1012.2
20260830222016 83 219 5.0 13.0 0.00 0.00 0.00 65 1012.3
20260830221037 83 202 6.0 13.0 0.00 0.00 0.00 65 1012.5
20260830220139 84 180 7.0 13.0 0.00 0.00 0.00 63 1012.6
20260830215036 84 193 7.0 14.0 0.00 0.00 0.00 62 1012.8
20260830214017 84 179 6.0 15.0 0.00 0.00 0.00 62 1012.8
20260830213016 84 178 7.0 15.0 0.00 0.00 0.00 61 1012.9
20260830212017 84 192 7.0 13.0 0.00 0.00 0.00 58 1012.8
20260830211016 84 206 8.0 14.0 0.00 0.00 0.00 59 1012.9
20260830210016 84 191 7.0 12.0 0.00 0.00 0.00 60 1013.1
20260830205017 84 198 7.0 14.0 0.00 0.00 0.00 60 1013.2
20260830204016 84 188 9.0 14.0 0.00 0.00 0.00 60 1013.3
20260830203016 84 203 7.0 15.0 0.00 0.00 0.00 58 1013.2
20260830202157 84 206 7.0 15.0 0.00 0.00 0.00 57 1013.1
20260830201016 85 196 9.0 19.0 0.00 0.00 0.00 58 1013.1
20260830200016 85 207 7.0 15.0 0.00 0.00 0.00 58 1013.2
20260830195017 85 196 7.0 15.0 0.00 0.00 0.00 56 1013.2
20260830194016 85 206 7.0 13.0 0.00 0.00 0.00 57 1013.3
20260830193017 86 227 5.0 13.0 0.00 0.00 0.00 57 1013.4
20260830192016 86 225 6.0 13.0 0.00 0.00 0.00 57 1013.5
20260830191016 86 218 7.0 15.0 0.00 0.00 0.00 57 1013.5
20260830190017 86 202 7.0 13.0 0.00 0.00 0.00 57 1013.5
20260830185017 85 227 5.0 13.0 0.00 0.00 0.00 60 1013.5
20260830184017 84 206 6.0 13.0 0.00 0.00 0.00 60 1013.6
20260830183017 84 219 5.0 13.0 0.00 0.00 0.00 62 1013.6
20260830182017 84 219 7.0 13.0 0.00 0.00 0.00 64 1013.7
20260830181016 84 224 5.0 13.0 0.00 0.00 0.00 66 1013.7
20260830180016 84 201 6.0 12.0 0.00 0.00 0.00 66 1013.7
20260830175016 83 212 5.0 14.0 0.00 0.00 0.00 67 1013.6
20260830174017 83 185 7.0 14.0 0.00 0.00 0.00 65 1013.6
20260830173037 84 188 7.0 11.0 0.00 0.00 0.00 65 1013.5
20260830172036 84 215 4.0 11.0 0.00 0.00 0.00 65 1013.3
20260830171037 84 214 4.0 10.0 0.00 0.00 0.00 66 1013.2
20260830170016 83 207 5.0 9.0 0.00 0.00 0.00 68 1013.1
20260830165016 83 184 5.0 10.0 0.00 0.00 0.00 68 1013.0
20260830164016 82 197 4.0 10.0 0.00 0.00 0.00 69 1012.9
20260830163016 82 187 5.0 11.0 0.00 0.00 0.00 69 1013.0
20260830162016 82 175 4.0 9.0 0.00 0.00 0.00 70 1013.1
20260830161016 81 212 2.0 6.0 0.00 0.00 0.00 72 1013.0
20260830160036 79 224 1.0 5.0 0.00 0.00 0.00 75 1013.0
20260830155016 77 201 1.0 7.0 0.00 0.00 0.00 79 1013.0
20260830154016 75 188 4.0 8.0 0.00 0.00 0.00 80 1013.0
20260830153016 75 195 2.0 6.0 0.00 0.00 0.00 81 1013.0
20260830152016 75 212 3.0 6.0 0.00 0.00 0.00 82 1013.0
20260830151016 74 221 2.0 5.0 0.00 0.00 0.00 83 1013.0
20260830150016 74 194 3.0 5.0 0.00 0.00 0.00 83 1013.0
20260830145016 74 206 3.0 6.0 0.00 0.00 0.00 84 1012.9
20260830144036 73 189 2.0 5.0 0.00 0.00 0.00 84 1012.9
20260830143056 73 191 2.0 4.0 0.00 0.00 0.00 84 1012.9
20260830142016 73 206 0.0 5.0 0.00 0.00 0.00 84 1012.9
20260830141016 73 213 2.0 5.0 0.00 0.00 0.00 84 1012.9
20260830140016 73 206 1.0 4.0 0.00 0.00 0.00 85 1012.8
20260830135015 72 0.0 0.0 0.00 0.00 0.00 85 1012.6
20260830134016 72 192 2.0 4.0 0.00 0.00 0.00 85 1012.5
20260830133036 72 190 2.0 4.0 0.00 0.00 0.00 85 1012.5
20260830132036 72 194 1.0 4.0 0.00 0.00 0.00 85 1012.5
20260830131016 72 200 0.0 4.0 0.00 0.00 0.00 85 1012.5
20260830130016 72 200 2.0 4.0 0.00 0.00 0.00 85 1012.4
20260830125016 72 0.0 0.0 0.00 0.00 0.00 85 1012.5
20260830124036 72 0.0 0.0 0.00 0.00 0.00 85 1012.4
20260830123037 73 0.0 0.0 0.00 0.00 0.00 84 1012.4
20260830122036 73 0.0 0.0 0.00 0.00 0.00 84 1012.4
20260830121015 73 0.0 0.0 0.00 0.00 0.00 83 1012.4
20260830120036 73 203 2.0 6.0 0.00 0.00 0.00 84 1012.4
20260830115015 73 179 4.0 8.0 0.00 0.00 0.00 84 1012.5
20260830114016 73 216 3.0 7.0 0.00 0.00 0.00 84 1012.6
20260830113016 73 179 3.0 9.0 0.00 0.00 0.00 84 1012.5
20260830112016 73 196 4.0 7.0 0.00 0.00 0.00 84 1012.4
20260830111016 73 164 4.0 7.0 0.00 0.00 0.00 85 1012.4
20260830110056 73 157 3.0 6.0 0.00 0.00 0.00 85 1012.3
20260830105016 73 195 4.0 8.0 0.00 0.00 0.00 85 1012.3
20260830104015 73 180 3.0 6.0 0.00 0.00 0.00 85 1012.3
20260830103016 73 181 3.0 6.0 0.00 0.00 0.00 85 1012.3
20260830102015 73 183 3.0 6.0 0.00 0.00 0.00 85 1012.2
20260830101016 73 0.0 4.0 0.00 0.00 0.00 84 1012.1
20260830095015 74 172 2.0 5.0 0.00 0.00 0.00 84 1012.2
20260830094015 74 176 1.0 4.0 0.00 0.00 0.00 84 1012.2
20260830093015 74 186 2.0 4.0 0.00 0.00 0.00 84 1012.3